Satellite: PO-34
Catalog number: 25520
Epoch time:      06025.88470004
Element set:    0389
Inclination:      028.4599 deg
RA of node:       263.0604 deg
Eccentricity:    0.0005738
Arg of perigee:   130.1274 deg
Mean anomaly:     229.9818 deg
Mean motion:   15.16594440 rev/day
Decay rate:       6.44e-06 rev/day^2
Epoch rev:           40042
Checksum:              296

Satellite: ISS
Catalog number: 25544
Epoch time:      06026.82238319
Element set:     226
Inclination:      051.6428 deg
RA of node:       194.4318 deg
Eccentricity:    0.0009617
Arg of perigee:   199.1790 deg
Mean anomaly:     300.1870 deg
Mean motion:   15.74251821 rev/day
Decay rate:     1.1052e-04 rev/day^2
Epoch rev:           41088
Checksum:              287

Satellite: OO-38
Catalog number: 26063
Epoch time:      06025.78222558
Element set:     529
Inclination:      100.1899 deg
RA of node:       291.1952 deg
Eccentricity:    0.0037098
Arg of perigee:   147.9206 deg
Mean anomaly:     212.4261 deg
Mean motion:   14.35751232 rev/day
Decay rate:        1.5e-07 rev/day^2
Epoch rev:           31423
Checksum:              290

Satellite: NO-45
Catalog number: 26932
Epoch time:      06025.42767939
Element set:     226
Inclination:      067.0581 deg
RA of node:       015.0724 deg
Eccentricity:    0.0006293
Arg of perigee:   287.8621 deg
Mean anomaly:     072.1809 deg
Mean motion:   14.29512916 rev/day
Decay rate:      -1.25e-06 rev/day^2
Epoch rev:           22556
Checksum:              307

Satellite: UWE-1
Catalog number: 28892
Epoch time:      06026.67781990
Element set:     317
Inclination:      098.1796 deg
RA of node:       287.0710 deg
Eccentricity:    0.0016450
Arg of perigee:   252.4151 deg
Mean anomaly:     107.5259 deg
Mean motion:   14.59296420 rev/day
Decay rate:       1.67e-06 rev/day^2
Epoch rev:            1333
Checksum:              308

Satellite: XI-V
Catalog number: 28895
Epoch time:      06026.67431061
Element set:     299
Inclination:      098.1826 deg
RA of node:       287.0990 deg
Eccentricity:    0.0016964
Arg of perigee:   252.0090 deg
Mean anomaly:     107.9267 deg
Mean motion:   14.59352304 rev/day
Decay rate:       1.63e-06 rev/day^2
Epoch rev:            1321
Checksum:              302

Satellite: NCUBE2
Catalog number: 28897
Epoch time:      06026.25513338
Element set:      20
Inclination:      098.1770 deg
RA of node:       286.6858 deg
Eccentricity:    0.0016138
Arg of perigee:   256.4687 deg
Mean anomaly:     103.4729 deg
Mean motion:   14.59505541 rev/day
Decay rate:       1.52e-06 rev/day^2
Epoch rev:             542
Checksum:              307

/EX



----
Via the keps mailing list at AMSAT.ORG courtesy of AMSAT-NA.
To unsubscribe, send "unsubscribe keps" to Majordomo@amsat.org

--- ViaMAIL!/WC v1.60d
 * Origin: Chowdanet (401-724-4410) telnet://chowdanet.com  (1:323/120)